Regional Weather Roundup
Issued by NWS

Home | Current Version | Previous Version | Graphics & Text | Print | Product List | Glossary On
Versions: 1 2 3 4 5 6 7 8 9 10 11 12 13 14 15 16 17 18 19 20 21 22 23 24 25 26 27 28 29 30 31 32 33 34 35 36 37 38 39 40 41 42 43 44 45 46 47 48 49 50
000
ASUS43 KIND 300809
RWRIN

WEATHER ROUNDUP FOR INDIANA
NATIONAL WEATHER SERVICE INDIANAPOLIS IN
400 AM EDT FRI SEP 30 2016

NOTE: "FAIR" INDICATES FEW OR NO CLOUDS BELOW 12,000 FEET WITH NO
SIGNIFICANT WEATHER AND/OR OBSTRUCTIONS TO VISIBILITY.

* - STATION DOES NOT REPORT WEATHER SUCH AS PRECIPITATION OR FOG.

+ - STATION NOT QUALITY CONTROLLED BY THE NATIONAL WEATHER SERVICE.
    USE DATA WITH CAUTION...ESPECIALLY DEWPOINT AND RELATIVE
    HUMIDITY OBSERVATIONS.

INZ001>003-010>013-019-020-300900-
NORTHWEST INDIANA

CITY           SKY/WX    TMP DP  RH WIND       PRES   REMARKS
GARY /AIRPORT/ CLOUDY    63  60  90 NE17G23   30.14S
KNOX *+        CLOUDY    59  46  63 NE8       30.11F
LA PORTE +     CLOUDY   N/A N/A N/A NE8       30.13F
MICHIGAN CITY+ CLOUDY    57  57 100 CALM      30.13F
MONTICELLO +   CLOUDY    58  55  88 NE5       30.09S
RENSSELAER +   CLOUDY    59  59 100 N7        30.10F
VALPARAISO     CLOUDY    58  57  97 N6        30.12F

$$

LMZ046-743>745-300900-
SOUTHERN LAKE MICHIGAN

STATION/POSITION TIME  TEMP    WIND        PRES    WAVE
                       AIR SEA DIR/SP/G            HT
                 (UTC) (F)     (DEG/KT/KT) (MB)    (FT)
BURNS HARBOR     0730   62      60/ 22/ 25 1020.7S
MICHIGAN CITY    0740   59      30/ 17/ 20   N/A
5NW MICH CITY    0800   61 64   50/ 17/ 21   N/A     6

$$

INZ004-005-014>016-021>024-300900-
NORTH CENTRAL INDIANA

CITY           SKY/WX    TMP DP  RH WIND       PRES   REMARKS
GOSHEN         CLOUDY    60  57  89 NE10      30.11F
LOGANSPORT +   CLOUDY    59  57  94 N5        30.08F
PERU/GRISSOM   CLOUDY    60  60 100 NE7       30.06F
ROCHESTER +    CLOUDY    61  61 100 CALM      30.09F
SOUTH BEND     CLOUDY    58  58 100 NE8       30.13F
WARSAW +       CLOUDY    59  59 100 NE6       30.10S

$$

INZ006>009-017-018-025>027-300900-
NORTHEAST INDIANA

CITY           SKY/WX    TMP DP  RH WIND       PRES   REMARKS
ANGOLA *+        N/A     61  48  63 E7        30.12R
AUBURN +       CLOUDY    61  57  88 NE7       30.10F
FORT WAYNE     CLOUDY    61  58  90 NE9       30.09F
HUNTINGTON +   CLOUDY    59  57  96 NE5       30.07F
KENDALLVILLE + CLOUDY    60  60  98 NE3       30.11S

$$

INZ028-029-035-036-043>045-051>053-300900-
WEST CENTRAL INDIANA

CITY           SKY/WX    TMP DP  RH WIND       PRES   REMARKS
CRAWFORDSVL +  CLOUDY    57  57 100 N6        30.06F
GREENCASTLE +  CLOUDY    59  59 100 NW5       30.04F
LAFAYETTE      CLOUDY    59  59 100 NE9       30.07F
TERRE HAUTE    CLOUDY    59  57  93 N6        30.06F

$$

INZ030>032-037>040-046>048-054>057-064-065-300900-
CENTRAL INDIANA

CITY           SKY/WX    TMP DP  RH WIND       PRES   REMARKS
FISHERS *+     CLOUDY    57  57 100 CALM      30.04F
FRANKFORT +    CLOUDY    62  60  94 NE7       30.08F
GREENWOOD *+   CLOUDY    59  59 100 CALM      30.03F
INDIANAPOLIS   LGT RAIN  60  58  92 NE7       30.02F
-EAGLE CREEK   LGT RAIN  61  58  90 E5        30.03F
KOKOMO *+      CLOUDY    60  59  96 N8        30.06F
MARION +       MOCLDY    59  58  95 N7        30.05F FOG
MT COMFORT *+  PTCLDY    57  55  94 N5        30.03R
SHELBYVILLE    CLOUDY    61  57  87 NE3       30.02S
ZIONSVILLE +   LGT RAIN  58  57  96 N9        30.03F

$$

INZ033-034-041-042-049-050-058-059-300900-
EAST CENTRAL INDIANA

CITY           SKY/WX    TMP DP  RH WIND       PRES   REMARKS
MUNCIE         CLOUDY    60  58  92 NE10      30.03S

$$

INZ060-061-067>069-081>083-085>088-300900-
SOUTHWEST INDIANA

CITY           SKY/WX    TMP DP  RH WIND       PRES   REMARKS
EVANSVILLE     PTCLDY    56  52  86 W3        30.04F
HUNTINGBURG *+   N/A     55  54  94 W5        30.02F
WASHINGTON +   CLOUDY    56  56 100 MISG      30.02F

$$

INZ062-063-066-070>080-084-089>092-300900-
SOUTH CENTRAL AND SOUTHEAST INDIANA

CITY           SKY/WX    TMP DP  RH WIND       PRES   REMARKS
BLOOMINGTON    LGT RAIN  58  55  90 N5        30.02F
MADISON *+     CLOUDY    55  54  94 SW3       30.04F
NORTH VERNON + CLOUDY   N/A N/A N/A S5        30.03F
SEYMOUR +      CLOUDY    57  55  94 CALM      30.02F

$$




USA.gov is the U.S. government's official web portal to all federal, state and local government web resources and services.